User: anonymous   Login
Location: Unspecified
(0.0000°N, 0.0000°E)
Time: 09:31:37
(UTC+01:00)
Language:

Delta 168 - Orbit

View from above orbital plane
View from above orbital plane
View from above satellite
View from above satellite

Ground track
Ground track

The orbit data is extracted from the following two-line orbital elements,

1 14051U 83041B   14298.82025887  .00013553  00000-0  13536-2 0  6388
2 14051 025.3334 108.0620 1123832 173.2180 337.7126 13.02330115452102
Epoch (UTC): 25 October 2014 19:41:10
Eccentricity: 0.1123832
inclination: 25.3334°
perigee height: 395 km
apogee height: 2110 km
right ascension of ascending node: 108.0620°
argument of perigee: 173.2180°
revolutions per day: 13.02330115
mean anomaly at epoch: 337.7126°
orbit number at epoch: 45210

The dashed part of the orbit path shows where the satellite is in the earth's shadow,  

DLR